Погода в Березовке

Украина / Житомирская область     50°18′49″N   28°26′36″E
темп.,
°C
ветер,
м/с
пор.,
м/с
влажн.,
%
обл.,
%
осадки,
мм/ч
давл.,
гПа
погр.,
м
26 октября, вт
вт2600:00+2ю49565 0.0 1031166
03:00+1ю410605 0.0 1031188
06:000ю412645 0.0 1029224
09:00+2ю513595 0.0 1029342
12:00+9ю7103534 0.0 1027642
15:00+12ююз783123 0.0 1025892
18:00+7ю48455 0.0 1025124
21:00+4ю4125728 0.0 1025202
27 октября, ср
ср2700:00+3ююз4127068 0.0 1025229
03:00+2ююз41183100 0.0 1025213
06:00+1юз4891100 0.0 1024141
09:00+3зюз367253 0.0 1024139
12:00+9з585943 0.0 1024364
15:00+13зсз6855100 0.0 10231294
18:00+9з3473100 0.0 102445
21:00+7з368899 0.0 102586
28 октября, чт
чт2800:00+6зюз4891100 0.0 1025147
03:00+6зюз4109287 0.0 1024177
06:00+6зюз41290100 0.0 1024250
09:00+7з5137948 0.0 1024338
12:00+13зсз71260100 0.0 1024630
15:00+15зсз7106092 0.0 1023801
18:00+11зсз478078 0.0 1024125
21:00+11зсз3880100 0.0 1025263
29 октября, пт
пт2900:00+11сз3787100 0.0 1026250
03:00+10с2493100 0.1 1026134
06:00+8с119537 0.0 102710
09:00+8всв229334 0.0 102855
12:00+13вюв336693 0.0 1028619
15:00+15вюв335558 0.0 1028950
18:00+11вюв34748 0.0 102848
21:00+8юв49875 0.0 1029169
30 октября, сб
сб3000:00+7ююв410925 0.0 1029178
03:00+6юв499426 0.0 1029172
06:00+6ююв4109374 0.0 1029190
09:00+7ююв5138867 0.0 1029306
12:00+14ю7105848 0.0 1028751
15:00+17ю79465 0.0 10271069
18:00+12ююв410575 0.0 1027190
21:00+9ююв413690 0.0 1028258